Zurück zum Katalog

EUTE 2-F2

AktivKommunikationGEO
NORAD 21056·PAYLOAD·🇪🇺 EU

Gestartet Jan 15, 1991 von Guiana Space Centre

Loading…

TLE

AktuellSource: Space-Track

Epoche: Sep 12, 2026, 21:07 UTC

1 21056U 91003B   26255.88016993  .00000031  00000-0  00000-0 0  9995
2 21056  14.9165   0.9491 0005187 194.5343 167.6293  0.98939627117090

Verfolge EUTE 2-F2 in Echtzeit mit AllMySat

Download on the App Store